[[{"header":{"parameterUnit":"m.s-1","parameterCategory":1,"la1":30.2992,"la2":30.254,"lo1":-89.0895,"lo2":-89.0443,"dy":0.0025,"dx":0.0025,"nx":19,"ny":19,"refTime":"2026-05-22T21:00:00:Z","depth":0,"parameterNumber":2,"parameterNumberName":"U-component_of_WINDS"},"data":[0,0,0,-0.8778,-0.8781,-0.8924,-0.8925,-0.9091,-0.9093,0,0,0,0,0,0,0,0,0,0,0,-0.8723,-0.8724,-0.8778,-0.8781,-0.8924,-0.8925,-0.9091,-0.9093,0,0,0,0,0,0,0,0,0,0,0,-0.8723,-0.8723,-0.8724,-0.8782,-0.8924,-0.8925,-0.9091,-0.899,0,0,0,0,0,0,0,0,0,0,-0.8854,-0.8789,-0.8723,-0.8724,-0.8783,-0.8924,-0.8925,-0.8985,-0.8996,-0.9019,0,-0.9033,0,-0.9065,-0.9103,-0.9103,0,0,0,-0.8792,-0.878,-0.883,-0.8724,-0.8784,-0.8924,-0.8863,-0.8991,-0.9004,-0.9033,-0.9035,-0.9042,-0.9068,-0.9104,-0.9104,-0.9194,-0.9194,0,0,-0.8784,-0.8742,-0.8821,-0.8837,-0.8811,-0.8858,-0.8867,-0.8999,-0.9,-0.9036,-0.9046,-0.9071,-0.9105,-0.9106,-0.9194,-0.9194,0,0,0,-0.8754,-0.8736,-0.8784,-0.883,-0.8857,-0.8862,-0.8872,-0.8994,-0.9013,-0.9048,-0.9072,-0.9105,-0.9107,-0.9194,-0.9194,-0.9149,0,0,0,-0.875,-0.8719,-0.878,-0.8756,-0.8854,-0.8926,-0.8864,-0.9004,-0.902,-0.9072,-0.9105,-0.9109,-0.9194,-0.9194,-0.915,-0.9135,0,0,0,-0.8718,-0.8716,-0.8731,-0.8753,-0.8813,-0.8925,-0.8952,-0.9008,-0.9034,-0.9103,-0.9109,-0.9195,-0.9194,-0.9152,-0.9137,-0.9146,0,0,0,-0.8673,-0.869,-0.873,-0.8759,-0.8811,-0.8895,-0.8952,-0.9017,-0.9071,-0.9106,-0.9194,-0.9194,-0.9152,-0.9138,-0.9147,-0.9146,-0.9141,0,0,-0.8672,-0.8688,-0.8709,-0.8749,-0.8814,-0.8877,-0.8938,-0.9028,-0.9074,-0.9152,-0.9155,-0.915,-0.9137,-0.9146,-0.913,-0.9126,0,0,0,-0.8695,-0.8709,-0.8735,-0.8783,-0.8851,-0.8908,-0.8993,-0.9027,-0.9095,-0.9104,-0.9157,-0.9151,-0.9158,-0.9159,-0.9156,-0.9165,-0.9193,-0.9193,-0.9193,-0.8633,-0.8689,-0.8727,-0.8801,-0.8847,-0.8935,-0.8978,-0.9039,-0.9084,-0.9096,-0.9119,-0.9102,-0.9102,-0.9099,-0.9108,-0.9123,-0.9123,-0.9123,-0.9123,-0.8636,-0.8665,-0.8724,-0.8781,-0.8842,-0.8892,-0.8978,-0.9008,-0.9066,-0.9089,-0.9098,-0.9117,-0.9093,-0.9104,-0.912,-0.912,-0.9121,-0.9121,-0.9121,-0.8602,-0.8625,-0.8665,-0.874,-0.8793,-0.8869,-0.8921,-0.8975,-0.9028,-0.9037,-0.9068,-0.9069,-0.9077,-0.9048,-0.9047,-0.9047,-0.9047,-0.9047,-0.9047,-0.855,-0.8596,-0.8631,-0.8705,-0.8743,-0.8801,-0.889,-0.8931,-0.899,-0.9026,-0.9027,-0.9071,-0.908,-0.9081,-0.9047,-0.9047,-0.9047,-0.9047,-0.9047,-0.8532,-0.8545,-0.8599,-0.8637,-0.8729,-0.8779,-0.8847,-0.8926,-0.8967,-0.8992,-0.9035,-0.9032,-0.9054,-0.9058,-0.9059,-0.9022,-0.9022,-0.9022,-0.9022,-0.8502,-0.8518,-0.8587,-0.8645,-0.8708,-0.8776,-0.8839,-0.891,-0.8985,-0.9015,-0.9029,-0.9036,-0.9036,-0.9058,-0.9061,-0.9063,-0.9028,-0.9028,-0.9028,-0.8495,-0.8519,-0.8561,-0.8632,-0.8708,-0.8773,-0.8835,-0.8902,-0.8991,-0.9029,-0.904,-0.904,-0.9051,-0.9052,-0.9089,-0.9093,-0.9098,0,0]},{"header":{"parameterUnit":"m.s-1","parameterCategory":1,"la1":30.2992,"la2":30.254,"lo1":-89.0895,"lo2":-89.0443,"dy":0.0025,"dx":0.0025,"nx":19,"ny":19,"refTime":"2026-05-22T21:00:00:Z","depth":0,"parameterNumber":3,"parameterNumberName":"V-component_of_WINDS"},"data":[0,0,0,5.3016,5.3021,5.3253,5.3254,5.3544,5.3546,0,0,0,0,0,0,0,0,0,0,0,5.2946,5.2948,5.3016,5.3021,5.3253,5.3254,5.3543,5.3546,0,0,0,0,0,0,0,0,0,0,0,5.2945,5.2947,5.295,5.3022,5.3253,5.3254,5.3543,5.337,0,0,0,0,0,0,0,0,0,0,5.3145,5.308,5.2947,5.295,5.3024,5.3253,5.3254,5.3361,5.338,5.3437,0,5.3489,0,5.3522,5.3566,5.3567,0,0,0,5.3022,5.3064,5.3128,5.295,5.3026,5.3252,5.3149,5.3372,5.3394,5.3462,5.3493,5.3504,5.3527,5.3568,5.3569,5.3898,5.3899,0,0,5.3009,5.2986,5.3113,5.3142,5.3109,5.3141,5.3156,5.3385,5.3416,5.3494,5.3511,5.3532,5.3569,5.3572,5.3897,5.3898,0,0,0,5.2972,5.2977,5.3036,5.313,5.3172,5.3148,5.3165,5.3406,5.3427,5.3514,5.3535,5.3571,5.3575,5.3895,5.3897,5.3951,0,0,0,5.2964,5.2955,5.303,5.3018,5.3168,5.3293,5.3181,5.3411,5.3438,5.3534,5.3571,5.3577,5.3893,5.3896,5.3946,5.398,0,0,0,5.2931,5.2952,5.2985,5.3017,5.3116,5.329,5.3324,5.3418,5.3451,5.3567,5.3578,5.3892,5.3896,5.3942,5.3973,5.4061,0,0,0,5.2888,5.3028,5.2985,5.315,5.3114,5.3322,5.3323,5.3478,5.3584,5.3573,5.3894,5.3897,5.394,5.3968,5.4056,5.413,5.416,0,0,5.3052,5.3047,5.3146,5.3114,5.3324,5.3288,5.3506,5.3623,5.3653,5.3814,5.3822,5.3948,5.3972,5.4059,5.433,5.4353,0,0,0,5.319,5.326,5.3321,5.3422,5.3516,5.3599,5.3686,5.3729,5.3867,5.3732,5.4004,5.4019,5.4071,5.4108,5.4127,5.4173,5.3913,5.3913,5.3912,5.3388,5.3422,5.3587,5.3648,5.3745,5.3834,5.3915,5.3988,5.3991,5.4055,5.4103,5.4264,5.4306,5.4321,5.4368,5.4145,5.4145,5.4145,5.4146,5.3631,5.3736,5.3739,5.3901,5.3934,5.4069,5.4159,5.4157,5.4286,5.423,5.4277,5.4214,5.4345,5.4388,5.415,5.4149,5.4149,5.4148,5.4148,5.3765,5.3821,5.3873,5.4022,5.4133,5.4189,5.4313,5.4339,5.4363,5.441,5.4463,5.4462,5.4465,5.4433,5.4434,5.4435,5.4435,5.4436,5.4436,5.3884,5.394,5.4044,5.4156,5.4224,5.4316,5.4405,5.4472,5.4552,5.4561,5.4561,5.4558,5.4352,5.43,5.4445,5.4443,5.4442,5.4441,5.4441,5.4118,5.4069,5.4229,5.4297,5.443,5.4538,5.4569,5.4703,5.4761,5.4821,5.4809,5.4652,5.4648,5.4633,5.459,5.4801,5.4801,5.4801,5.4801,5.4231,5.4232,5.4401,5.4509,5.4617,5.4661,5.4838,5.4908,5.4972,5.501,5.4983,5.4928,5.4911,5.4917,5.4896,5.4856,5.513,5.5131,5.5131,5.4377,5.439,5.4537,5.4602,5.4708,5.4798,5.4965,5.5086,5.5148,5.5145,5.504,5.5026,5.4938,5.4907,5.4902,5.4868,5.4795,0,0]}]]